Le nostre stazioni meteo in Italia

Pubblicità
Il mio iltempo24.it
Luqa, Malta (16597): Temperatura & dewpoint: 23.06.2017 00:00:00 - 29.06.2017 00:00:00 (CEST)Luqa, Malta (16597): velocità del vento: 23.06.2017 00:00:00 - 29.06.2017 00:00:00 (CEST)Luqa, Malta (16597): direzione del vento: 23.06.2017 00:00:00 - 29.06.2017 00:00:00 (CEST)Luqa, Malta (16597): reduced air pressure: 23.06.2017 00:00:00 - 29.06.2017 00:00:00 (CEST)Luqa, Malta (16597): visibility: 23.06.2017 00:00:00 - 29.06.2017 00:00:00 (CEST)
Data & Tempo tt [°C] td [°C] ff [km/h] ff [kn] dd ppp [hPa] vv [km]
29.06.2017 00:00:00 29,0 16,0 26 14 SSO - 10
28.06.2017 23:00:00 28,4 18,0 21 11 SSO 1009,4 10
28.06.2017 22:00:00 28,0 18,0 18 10 SSO - 10
28.06.2017 21:00:00 28,0 19,0 15 8 S - 10
28.06.2017 20:00:00 29,4 18,8 13 7 S 1009,3 10
28.06.2017 19:00:00 30,0 19,0 13 7 SSO - 10
28.06.2017 18:00:00 33,0 14,0 9 5 SO - 10
28.06.2017 17:00:00 32,8 14,8 13 7 SO 1009,6 10
28.06.2017 16:00:00 35,0 15,0 9 5 SO - 10
28.06.2017 15:00:00 35,0 16,0 11 6 SSO - 10
28.06.2017 14:00:00 34,0 17,0 11 6 OSO - 10
28.06.2017 13:00:00 33,0 18,0 15 8 SSO - 10
28.06.2017 12:00:00 32,0 18,0 13 7 OSO - 10
28.06.2017 11:00:00 31,4 18,0 13 7 SSO 1011,5 10
28.06.2017 10:00:00 31,0 18,0 15 8 SSO - 10
28.06.2017 09:00:00 30,0 17,0 13 7 SSO - 10
28.06.2017 08:00:00 29,5 16,9 9 5 SO 1011,6 10
28.06.2017 07:00:00 28,0 18,0 11 6 SO - 10
28.06.2017 06:00:00 27,0 18,0 13 7 SO - 10
28.06.2017 05:00:00 26,6 17,4 13 7 SSO 1011,3 10
28.06.2017 04:00:00 27,0 15,0 15 8 SSO - 10
28.06.2017 03:00:00 26,0 15,0 8 4 SSO - 10
28.06.2017 02:00:00 26,5 17,4 11 6 SO 1012,1 10
28.06.2017 01:00:00 26,0 17,0 13 7 SSO - 10
28.06.2017 00:00:00 26,0 16,0 8 4 S - 10
27.06.2017 23:00:00 27,0 16,1 9 5 SSO 1011,9 10
27.06.2017 22:00:00 26,0 21,0 13 7 SSO - 10
27.06.2017 21:00:00 27,0 19,0 13 7 SSO - 10
27.06.2017 20:00:00 27,9 18,3 9 5 SO 1011,9 10
27.06.2017 19:00:00 29,0 16,0 13 7 SSO - 10
27.06.2017 18:00:00 31,0 15,0 13 7 SO - 10
27.06.2017 17:00:00 31,5 14,9 13 7 SO 1012,9 10
27.06.2017 16:00:00 32,0 12,0 16 9 SSO - 10
27.06.2017 15:00:00 32,0 12,0 16 9 SO - 10
27.06.2017 14:00:00 31,7 13,2 13 7 OSO 1013,9 10
27.06.2017 13:00:00 31,0 15,0 13 7 SO - 10
27.06.2017 12:00:00 32,0 11,0 18 10 OSO - 10
27.06.2017 11:00:00 31,4 9,0 16 9 OSO 1014,3 10
27.06.2017 10:00:00 32,0 8,0 13 7 OSO - 10
27.06.2017 09:00:00 31,0 8,0 15 8 O - 10
27.06.2017 08:00:00 28,5 10,5 15 8 O 1014,3 10
27.06.2017 07:00:00 27,0 12,0 11 6 O - 10
27.06.2017 06:00:00 26,0 9,0 11 6 OSO - 10
27.06.2017 05:00:00 25,8 9,8 11 6 OSO 1012,9 10
27.06.2017 04:00:00 25,0 12,0 11 6 OSO - 10
27.06.2017 03:00:00 25,0 15,0 13 7 OSO - 10
27.06.2017 02:00:00 24,7 21,6 13 7 OSO 1013,5 10
27.06.2017 01:00:00 25,0 21,0 11 6 SO - 10
27.06.2017 00:00:00 25,0 22,0 11 6 SO - 10
26.06.2017 23:00:00 24,8 23,6 11 6 OSO 1014,2 10
26.06.2017 22:00:00 25,0 23,0 11 6 OSO - 10
26.06.2017 21:00:00 26,0 21,0 9 5 OSO - 10
26.06.2017 20:00:00 26,6 21,2 11 6 O 1013,3 10
26.06.2017 19:00:00 28,0 20,0 15 8 OSO - 10
26.06.2017 18:00:00 29,0 20,0 15 8 OSO - 10
26.06.2017 17:00:00 31,7 15,7 13 7 O 1013,1 10
26.06.2017 16:00:00 32,0 15,0 21 11 ONO - 10
26.06.2017 15:00:00 32,0 15,0 22 12 ONO - 10
26.06.2017 14:00:00 32,6 15,0 22 12 ONO 1013,8 10
26.06.2017 13:00:00 32,0 15,0 21 11 ONO - 10
26.06.2017 12:00:00 31,0 15,0 26 14 NO - 10
26.06.2017 11:00:00 30,7 14,9 22 12 ONO 1014,4 10
26.06.2017 10:00:00 30,0 15,0 18 10 O - 10
26.06.2017 09:00:00 28,0 17,0 18 10 ONO - 10
26.06.2017 08:00:00 27,0 16,7 21 11 O 1013,9 10
26.06.2017 07:00:00 26,0 18,0 16 9 ONO - 10
26.06.2017 06:00:00 24,0 20,0 15 8 O - 10
26.06.2017 05:00:00 24,5 16,7 13 7 O 1013,7 10
26.06.2017 04:00:00 24,0 16,0 13 7 O - 10
26.06.2017 03:00:00 25,0 16,0 13 7 O - 10
26.06.2017 02:00:00 24,5 14,1 13 7 O 1014,4 10
26.06.2017 01:00:00 25,0 15,0 15 8 O - 10
26.06.2017 00:00:00 25,0 18,0 16 9 O - 10
25.06.2017 23:00:00 25,0 16,6 15 8 O 1015,1 10
25.06.2017 22:00:00 25,0 17,0 15 8 O - 10
25.06.2017 21:00:00 25,0 19,0 13 7 O - 10
25.06.2017 20:00:00 27,6 14,1 13 7 O 1014,4 10
25.06.2017 19:00:00 29,0 11,0 18 10 ONO - 10
25.06.2017 18:00:00 30,0 12,0 18 10 O - 10
25.06.2017 17:00:00 32,0 11,8 18 10 ONO 1015,0 10
25.06.2017 16:00:00 32,0 12,0 22 12 ONO - 10
25.06.2017 15:00:00 32,0 13,0 22 12 NO - 10
25.06.2017 14:00:00 31,8 13,4 22 12 NO 1016,0 10
25.06.2017 13:00:00 32,0 14,0 24 13 NO - 10
25.06.2017 12:00:00 31,0 16,0 16 9 ONO - 10
25.06.2017 11:00:00 29,9 18,5 15 8 ONO 1016,1 10
25.06.2017 10:00:00 30,0 18,0 11 6 ONO - 10
25.06.2017 09:00:00 28,0 19,0 9 5 O - 10
25.06.2017 08:00:00 25,5 21,3 9 5 O 1016,1 10
25.06.2017 07:00:00 24,0 22,0 13 7 O - 10
25.06.2017 06:00:00 23,0 22,0 13 7 OSO - 10
25.06.2017 05:00:00 22,8 21,1 13 7 OSO 1015,7 10
25.06.2017 04:00:00 23,0 22,0 8 4 O - 10
25.06.2017 03:00:00 23,0 19,0 9 5 OSO - 10
25.06.2017 02:00:00 22,2 18,3 8 4 O 1016,6 10
25.06.2017 01:00:00 22,0 20,0 5 3 O - 10
25.06.2017 00:00:00 23,0 21,0 4 2 O - 10
24.06.2017 23:00:00 23,8 21,4 5 3 O 1017,4 10
24.06.2017 22:00:00 24,0 22,0 5 3 O - 10
24.06.2017 21:00:00 24,0 23,0 11 6 OSO - 10
24.06.2017 20:00:00 25,9 21,7 15 8 OSO 1016,3 10
24.06.2017 19:00:00 27,0 21,0 13 7 SO - 10
24.06.2017 18:00:00 28,0 20,0 13 7 OSO - 10
24.06.2017 17:00:00 28,4 20,6 16 9 SO 1016,5 10
24.06.2017 16:00:00 29,0 20,0 15 8 SO - 10
24.06.2017 15:00:00 29,0 19,0 16 9 OSO - 10
24.06.2017 14:00:00 29,9 19,1 16 9 SO 1017,4 10
24.06.2017 13:00:00 30,0 19,0 15 8 SO - 10
24.06.2017 12:00:00 30,0 18,0 11 6 SO - 10
24.06.2017 11:00:00 29,9 16,3 11 6 OSO 1017,8 10
24.06.2017 10:00:00 30,0 16,0 11 6 OSO - 10
24.06.2017 09:00:00 28,0 19,0 9 5 SO - 10
24.06.2017 08:00:00 25,5 21,0 5 3 O 1017,8 10
24.06.2017 07:00:00 24,0 21,0 5 3 OSO - 10
24.06.2017 06:00:00 23,0 21,0 8 4 O - 10
24.06.2017 05:00:00 22,4 20,6 5 3 O 1017,4 10
24.06.2017 04:00:00 23,0 21,0 11 6 O - 10
24.06.2017 03:00:00 23,0 21,0 11 6 O - 10
24.06.2017 02:00:00 23,1 21,2 11 6 OSO 1018,3 10
24.06.2017 01:00:00 23,0 21,0 11 6 OSO - 10
24.06.2017 00:00:00 23,0 20,0 8 4 OSO - 10
23.06.2017 23:00:00 23,7 19,4 8 4 O 1019,2 10
23.06.2017 22:00:00 24,0 19,0 9 5 ONO - 10
23.06.2017 21:00:00 24,0 19,0 9 5 NO - 10
23.06.2017 20:00:00 25,9 18,3 11 6 NO 1018,4 10
23.06.2017 19:00:00 27,0 17,0 15 8 NNO - 10
23.06.2017 18:00:00 29,0 16,0 15 8 NO - 10
23.06.2017 17:00:00 29,8 15,9 15 8 ONO 1018,3 10
23.06.2017 16:00:00 30,0 15,0 15 8 ONO - 10
23.06.2017 15:00:00 30,0 14,0 13 7 NO - 10
23.06.2017 14:00:00 30,5 14,0 18 10 NO 1019,6 10
23.06.2017 13:00:00 31,0 13,0 13 7 N - 10
23.06.2017 12:00:00 30,0 14,0 11 6 NNO - 10
23.06.2017 11:00:00 29,7 14,7 13 7 NO 1019,9 10
23.06.2017 10:00:00 29,0 15,0 11 6 N - 10
23.06.2017 09:00:00 28,0 15,0 13 7 NNO - 10
23.06.2017 08:00:00 25,4 16,0 9 5 NNO 1019,7 10
23.06.2017 07:00:00 24,0 17,0 8 4 O - 10
23.06.2017 06:00:00 22,0 16,0 4 2 - - 10
23.06.2017 05:00:00 21,9 14,1 8 4 N 1018,7 10
23.06.2017 04:00:00 23,0 12,0 11 6 ONO - 10
23.06.2017 03:00:00 22,0 11,0 4 2 O - 10
23.06.2017 02:00:00 22,6 10,9 5 3 ONO 1018,8 10
23.06.2017 01:00:00 22,0 12,0 5 3 NO - 10
23.06.2017 00:00:00 23,0 13,0 5 3 O - 10

tt = Temperatura
td = dewpoint
ff = velocità del vento
dd = direzione del vento
ppp = reduced air pressure
vv = visibility

Stazioni seguenti

WeatherPro
AMSI
MeteoEarth